Retour au catalogue

TITAN 3C TRANSTAGE DEB

ActifHEO
NORAD 26777·DEBRIS·🇺🇸 United States

Lancé Dec 21, 1965 depuis Cape Canaveral Space Force Station

Loading…

Prochains Passages (prochaines 24 heures)

TLE

FraisSource: Space-Track

Époque: Sep 13, 2026, 00:03 UTC

1 26777U 65108AV  26256.00232066 -.00000005  00000-0  00000-0 0  9995
2 26777  26.6768 162.1743 6692328 131.5814 356.1940  2.56629022 48294

Suivez TITAN 3C TRANSTAGE DEB en temps réel avec AllMySat

Download on the App Store